EN

Hourly Weather Jaypur

Today, 28 November, Saturday

Time Temperature Precipitation Wind Pressure Humidity
00:00 +18°C° 0 mm 3 mps 694 mmHg 63%
01:00 +18°C° 0 mm 3 mps 694 mmHg 62%
02:00 +18°C° 0 mm 2 mps 693 mmHg 61%
03:00 +18°C° 0 mm 2 mps 693 mmHg 59%
04:00 +18°C° 0 mm 2 mps 693 mmHg 58%
05:00 +18°C° 0 mm 2 mps 693 mmHg 56%
06:00 +19°C° 0 mm 1 mps 693 mmHg 57%
07:00 +19°C° 0 mm 2 mps 694 mmHg 60%
08:00 +19°C° 0 mm 2 mps 694 mmHg 64%
09:00 +19°C° 0 mm 2 mps 695 mmHg 67%
10:00 +21°C° 0 mm 2 mps 695 mmHg 59%
11:00 +24°C° 0 mm 3 mps 695 mmHg 52%
12:00 +26°C° 0 mm 3 mps 695 mmHg 44%
13:00 +26°C° 0 mm 3 mps 694 mmHg 45%
14:00 +27°C° 0 mm 3 mps 694 mmHg 46%
15:00 +27°C° 0 mm 2 mps 693 mmHg 46%
16:00 +25°C° 0 mm 2 mps 693 mmHg 52%
17:00 +24°C° 0 mm 2 mps 693 mmHg 58%
18:00 +21°C° 0 mm 2 mps 693 mmHg 64%
19:00 +21°C° 0 mm 2 mps 693 mmHg 65%
20:00 +20°C° 0 mm 2 mps 694 mmHg 66%
21:00 +19°C° 0 mm 2 mps 694 mmHg 67%
22:00 +19°C° 0 mm 2 mps 694 mmHg 67%
23:00 +20°C° 0 mm 1 mps 694 mmHg 68%

Tomorrow, 29 November, Sunday

Time Temperature Precipitation Wind Pressure Humidity
00:00 +19°C° 0 mm 1 mps 694 mmHg 68%
01:00 +19°C° 0 mm 1 mps 693 mmHg 68%
02:00 +19°C° 0 mm 1 mps 693 mmHg 68%
03:00 +18°C° 0 mm 1 mps 692 mmHg 69%
04:00 +18°C° 0 mm 1 mps 692 mmHg 68%
05:00 +18°C° 0 mm 1 mps 692 mmHg 68%
06:00 +18°C° 0 mm 1 mps 692 mmHg 67%
07:00 +20°C° 0 mm 1 mps 693 mmHg 63%
08:00 +21°C° 0 mm 1 mps 694 mmHg 59%
09:00 +23°C° 0 mm 1 mps 696 mmHg 55%
10:00 +25°C° 0 mm 2 mps 695 mmHg 49%
11:00 +26°C° 0 mm 2 mps 695 mmHg 44%
12:00 +28°C° 0 mm 2 mps 695 mmHg 38%
13:00 +28°C° 0 mm 2 mps 695 mmHg 38%
14:00 +28°C° 0 mm 2 mps 694 mmHg 38%
15:00 +28°C° 0 mm 1 mps 693 mmHg 38%
16:00 +27°C° 0 mm 2 mps 693 mmHg 46%
17:00 +25°C° 0 mm 2 mps 693 mmHg 54%
18:00 +23°C° 0 mm 2 mps 693 mmHg 62%
19:00 +21°C° 0 mm 2 mps 693 mmHg 63%
20:00 +20°C° 0 mm 2 mps 694 mmHg 64%
21:00 +19°C° 0 mm 2 mps 694 mmHg 66%
22:00 +20°C° 0 mm 1 mps 694 mmHg 67%
23:00 +19°C° 0 mm 1 mps 693 mmHg 67%

Day after tomorrow, 30 November, Monday

Time Temperature Precipitation Wind Pressure Humidity
00:00 +19°C° 0 mm 1 mps 693 mmHg 68%
01:00 +19°C° 0 mm 1 mps 693 mmHg 69%
02:00 +18°C° 0 mm 1 mps 692 mmHg 71%
03:00 +18°C° 0 mm 1 mps 692 mmHg 72%
04:00 +18°C° 0 mm 1 mps 692 mmHg 73%
05:00 +18°C° 0 mm 1 mps 692 mmHg 74%
06:00 +16°C° 0 mm 1 mps 692 mmHg 74%
07:00 +19°C° 0 mm 1 mps 693 mmHg 70%
08:00 +21°C° 0 mm 1 mps 694 mmHg 65%
09:00 +23°C° 0 mm 1 mps 695 mmHg 60%
10:00 +24°C° 0 mm 1 mps 695 mmHg 53%
11:00 +26°C° 0 mm 1 mps 695 mmHg 47%
12:00 +27°C° 0 mm 2 mps 695 mmHg 41%
13:00 +28°C° 0 mm 2 mps 694 mmHg 40%
14:00 +28°C° 0 mm 2 mps 694 mmHg 40%
15:00 +28°C° 0 mm 2 mps 693 mmHg 40%
16:00 +26°C° 0 mm 2 mps 693 mmHg 48%
17:00 +24°C° 0 mm 2 mps 693 mmHg 56%
18:00 +21°C° 0 mm 2 mps 692 mmHg 65%
19:00 +20°C° 0 mm 2 mps 693 mmHg 68%
20:00 +21°C° 0 mm 1 mps 693 mmHg 70%
21:00 +20°C° 0 mm 1 mps 694 mmHg 73%
22:00 +19°C° 0 mm 1 mps 694 mmHg 75%
23:00 +19°C° 0 mm 1 mps 694 mmHg 76%

1 December, Tuesday

Time Temperature Precipitation Wind Pressure Humidity
00:00 +19°C° 0 mm 1 mps 694 mmHg 78%
01:00 +18°C° 0 mm 1 mps 693 mmHg 79%
02:00 +18°C° 0 mm 1 mps 693 mmHg 79%
03:00 +18°C° 0 mm 1 mps 692 mmHg 79%
04:00 +16°C° 0 mm 1 mps 692 mmHg 79%
05:00 +16°C° 0 mm 1 mps 692 mmHg 79%
06:00 +16°C° 0 mm 1 mps 692 mmHg 79%
07:00 +18°C° 0 mm 1 mps 693 mmHg 72%
08:00 +20°C° 0 mm 1 mps 694 mmHg 66%
09:00 +22°C° 0 mm 1 mps 695 mmHg 59%
10:00 +24°C° 0 mm 1 mps 695 mmHg 53%
11:00 +25°C° 0 mm 2 mps 695 mmHg 47%
12:00 +27°C° 0 mm 2 mps 695 mmHg 41%
13:00 +27°C° 0 mm 2 mps 694 mmHg 40%
14:00 +27°C° 0 mm 2 mps 694 mmHg 39%
15:00 +28°C° 0 mm 2 mps 693 mmHg 38%
16:00 +26°C° 0 mm 2 mps 693 mmHg 46%
17:00 +23°C° 0 mm 2 mps 693 mmHg 55%
18:00 +20°C° 0 mm 2 mps 692 mmHg 63%
19:00 +19°C° 0 mm 2 mps 693 mmHg 64%
20:00 +19°C° 0 mm 2 mps 693 mmHg 65%
21:00 +19°C° 0 mm 1 mps 693 mmHg 66%
22:00 +18°C° 0 mm 1 mps 693 mmHg 65%
23:00 +18°C° 0 mm 1 mps 693 mmHg 63%

2 December, Wednesday

Time Temperature Precipitation Wind Pressure Humidity
00:00 +18°C° 0 mm 1 mps 693 mmHg 61%
01:00 +18°C° 0 mm 1 mps 692 mmHg 60%
02:00 +16°C° 0 mm 1 mps 692 mmHg 58%
03:00 +16°C° 0 mm 1 mps 692 mmHg 56%
04:00 +16°C° 0 mm 1 mps 692 mmHg 55%
05:00 +16°C° 0 mm 1 mps 692 mmHg 54%
06:00 +16°C° 0 mm 1 mps 692 mmHg 52%
07:00 +18°C° 0 mm 1 mps 693 mmHg 50%
08:00 +18°C° 0 mm 0 mps 693 mmHg 47%
09:00 +20°C° 0 mm 0 mps 694 mmHg 45%
10:00 +24°C° 0 mm 1 mps 694 mmHg 41%
11:00 +26°C° 0 mm 1 mps 694 mmHg 38%
12:00 +28°C° 0 mm 1 mps 694 mmHg 34%
13:00 +28°C° 0 mm 1 mps 694 mmHg 35%
14:00 +28°C° 0 mm 2 mps 693 mmHg 35%
15:00 +28°C° 0 mm 2 mps 692 mmHg 36%
16:00 +26°C° 0 mm 2 mps 692 mmHg 43%
17:00 +24°C° 0 mm 1 mps 692 mmHg 49%
18:00 +22°C° 0 mm 1 mps 691 mmHg 56%
19:00 +21°C° 0 mm 1 mps 692 mmHg 58%
20:00 +20°C° 0 mm 1 mps 692 mmHg 61%
21:00 +20°C° 0 mm 1 mps 692 mmHg 64%
22:00 +19°C° 0 mm 1 mps 692 mmHg 66%
23:00 +19°C° 0 mm 1 mps 692 mmHg 69%

3 December, Thursday

Time Temperature Precipitation Wind Pressure Humidity
00:00 +19°C° 0 mm 1 mps 692 mmHg 71%
01:00 +18°C° 0 mm 1 mps 691 mmHg 72%
02:00 +16°C° 0 mm 0 mps 691 mmHg 74%
03:00 +16°C° 0 mm 0 mps 691 mmHg 75%
04:00 +15°C° 0 mm 0 mps 691 mmHg 76%
05:00 +15°C° 0 mm 0 mps 691 mmHg 76%
06:00 +15°C° 0 mm 0 mps 691 mmHg 77%
07:00 +17°C° 0 mm 0 mps 692 mmHg 70%
08:00 +19°C° 0 mm 0 mps 693 mmHg 64%
09:00 +21°C° 0 mm 0 mps 693 mmHg 57%
10:00 +24°C° 0 mm 1 mps 693 mmHg 50%
11:00 +26°C° 0 mm 1 mps 693 mmHg 43%
12:00 +28°C° 0 mm 2 mps 694 mmHg 36%
13:00 +28°C° 0 mm 2 mps 693 mmHg 34%
14:00 +28°C° 0 mm 2 mps 692 mmHg 33%
15:00 +28°C° 0 mm 2 mps 692 mmHg 32%
16:00 +26°C° 0 mm 2 mps 692 mmHg 38%
17:00 +24°C° 0 mm 2 mps 691 mmHg 45%
18:00 +21°C° 0 mm 2 mps 691 mmHg 52%
19:00 +20°C° 0 mm 2 mps 692 mmHg 54%
20:00 +20°C° 0 mm 1 mps 692 mmHg 57%
21:00 +19°C° 0 mm 1 mps 692 mmHg 59%
22:00 +19°C° 0 mm 1 mps 692 mmHg 64%
23:00 +19°C° 0 mm 1 mps 692 mmHg 69%
Show more